Other Public Products
Issued by NWS Grand Forks, ND

Home | Current Version | Previous Version | Text Only | Print | Product List | Glossary Off
Versions: 1 2 3 4 5 6 7 8 9 10 11 12 13 14 15 16 17 18 19 20 21 22 23 24 25 26 27 28 29 30 31 32 33 34 35 36 37 38 39 40 41 42 43 44 45 46 47 48 49 50

000
FPUS83 KFGF 250231
OPUFGF
PRAIRIE TO PINES WEATHER ROUNDUP
NATIONAL WEATHER SERVICE EASTERN NORTH DAKOTA/GRAND FORKS ND
900 PM CDT MON JUL 24 2017

 **SATELLITE DATA USED TO AUGMENT SKY COVER AT AUTOMATED STATIONS**
 *****  WEATHER ACROSS EASTERN NORTH DAKOTA  *****

CITY           SKY/WX    TMP DP  RH WIND       PRES   REMARKS
GRAND FORKS    MOCLDY    74  65  73 S13       29.86R
GRAND FORKS AF FAIR      73  64  73 S10       29.87R
GRAND CITY NWS NOT AVBL
BUXTON           N/A     70  67  92 SE7         N/A
DEVILS LAKE    FAIR      76  64  66 S15       29.83S
FARGO          NOT AVBL
WAHPETON ARPT  FAIR      68  61  77 SE8       29.91F
$$

 *****  WEATHER ACROSS CENTRAL AND WESTERN NORTH DAKOTA  *****

CITY           SKY/WX    TMP DP  RH WIND       PRES   REMARKS
JAMESTOWN      FAIR      74  64  71 SE14G23   29.85S
BISMARCK       FAIR      80  67  64 SE9       29.81R
MINOT          FAIR      83  63  50 NW10      29.76R
MINOT AFB      FAIR      82  62  51 NW9       29.74S
GARRISON         N/A     83  66  56 S13       29.75R
WILLISTON      FAIR      87  47  24 N15       29.81R
DICKINSON      FAIR      87  54  32 N12       29.80R
HETTINGER      FAIR      86  57  37 E12       29.82R
$$

 *****  OTHER OBSERVATIONS NORTHEAST NORTH DAKOTA  *****

CITY           SKY/WX    TMP DP  RH WIND       PRES   REMARKS
WALHALLA       NOT AVBL
LANGDON        FAIR      72  70  94 S14       29.84R
CAVALIER       FAIR      73  64  73 S13       29.81S
GRAFTON        FAIR      72  64  78 S14G20    29.86S
CANDO          NOT AVBL
FORT TOTTEN      N/A     75  63  66 S12       29.95S
ROLLA            N/A     73  68  83 SE12      29.77F
RUGBY          NOT AVBL
 ***** THE ABOVE OBSERVATIONS ARE NON NWS ARE NOT QUALITY
        CONTROLLED AND MAY MIS-REPORT RAIN FOR SNOW...
$$

 *****  OTHER OBSERVATIONS SOUTHEAST NORTH DAKOTA *****

CITY           SKY/WX    TMP DP  RH WIND       PRES   REMARKS
COOPERSTOWN    FAIR      72  64  78 SE10      29.88R
VALLEY CITY    FAIR      72  70  94 S13       29.89S
OAKES          NOT AVBL
GWINNER        CLEAR     70  66  88 SE7       29.89S
SHEYENNE NWR     N/A     73  65  75 SE8       29.95S
BUFFALO          N/A     70  60  70 NE7         N/A
WYNDMERE       NOT AVBL
 ***** THE ABOVE OBSERVATIONS ARE NON NWS ARE NOT QUALITY
       CONTROLLED AND MAY MIS-REPORT RAIN FOR SNOW...
$$

  *****  WEATHER ACROSS NORTHERN MINNESOTA  *****

CITY           SKY/WX    TMP DP  RH WIND       PRES   REMARKS
FLAG ISLAND    FAIR      73  64  73 S10       29.88S
WARROAD        FAIR      72  63  73 S8        29.90S
ROSEAU         FAIR      72  64  78 S8        29.89S
HALLOCK        FAIR      72  64  78 S12       29.85S
THF RVR FALLS  FAIR      69  61  75 SE9       29.91F
HALSTAD          N/A     69  63  81 S9          N/A
FOSSTON        FAIR      66  59  77 SE6       29.93S
BAUDETTE       FAIR      71  59  65 S8        29.92F
WASKISH        FAIR      66  61  82 CALM      29.95S
CROOKSTON      FAIR      72  63  73 S10       29.89S
$$
  *****  WEATHER ACROSS CENTRAL AND WEST MINNESOTA  *****

CITY           SKY/WX    TMP DP  RH WIND       PRES   REMARKS
BEMIDJI        FAIR      68  60  74 SE8       29.95F
PARK RAPIDS    FAIR      72  61  68 SE13      29.95F
WADENA         FAIR      68  61  77 SE9       29.96R
DETROIT LAKES  FAIR      70  61  73 S12G17    29.95R
MOORHEAD       FAIR      72  63  73 S8        29.91S
FERGUS FALLS   FAIR      72  63  73 SE13      29.92F
ELBOW LAKE     FAIR      69  64  83 SE8       29.93R
MORRIS MN      FAIR      70  64  83 S12G20    29.94R
STAPLES        FAIR      70  59  68 SE7       29.97S
WHEATON        FAIR      70  63  78 SE13      29.92S
$$
  *****  WEATHER ELSEWHERE ACROSS MINNESOTA  *****

CITY           SKY/WX    TMP DP  RH WIND       PRES   REMARKS
DULUTH         FAIR      61  54  77 SE7       30.05S
INTRNTL FALLS  FAIR      70  56  61 VRB3      29.97R
ELY            FAIR      64  54  68 CALM      30.04S
CLOQUET        FAIR      63  54  72 E3        30.04F
BRAINERD       FAIR      68  61  78 SE7       29.99F
HIBBING        FAIR      65  55  70 S3        30.02S
ALEXANDRIA     LGT RAIN  68  64  87 SE20      29.96S
SAINT CLOUD    FAIR      69  62  78 SE7       29.99F
MINNEAPOLIS    MOCLDY    73  60  63 SE9       30.03F
$$

  *****  WEATHER ACROSS SOUTH DAKOTA  *****

CITY           SKY/WX    TMP DP  RH WIND       PRES   REMARKS
SIOUX FALLS    MOCLDY    78  66  66 SE13G23   29.92S
BROOKINGS      FAIR      74  65  73 SE16      29.92F
WATERTOWN      FAIR      75  65  70 SE10      29.90F
HURON          FAIR      79  66  64 SE17G24   29.82R
SISSETON         N/A     71  67  87 SE15      29.89F
ABERDEEN       CLOUDY    75  67  76 SE13      29.85F
MITCHELL       FAIR      82  67  60 SE18G25   29.84R
PIERRE         FAIR      89  58  34 SE20G25   29.74R
MOBRIDGE       FAIR      78  67  68 E15G24    29.78S
RAPID CITY     FAIR      88  50  27 NE8       29.83S
$$

  *****  SOME WEATHER IN NEARBY STATES *****

CITY           SKY/WX    TMP DP  RH WIND       PRES   REMARKS
GLASGOW MT     FAIR      84  41  21 NE3       29.83S
GREAT FALLS MT FAIR      82  44  26 NE13      29.88R
CHEYENNE WY    FAIR      85  36  17 W3        30.09S
SCOTTSBLUFF NE FAIR      85  56  37 E13       29.89R
OMAHA NE       FAIR      81  67  62 SE14      29.96S
DES MOINES IA  FAIR      77  63  61 E8        29.99S
DAVENPORT IA   FAIR      65  61  87 NE5       30.08R
CHICAGO IL     MOCLDY    68  59  73 NE7       30.09R
EAU CLAIRE WI  FAIR      69  58  67 S5        30.07R
LA CROSSE WI   FAIR      72  60  66 S8        30.07R
$$

  *****  SOME NATIONAL WEATHER *****

CITY           SKY/WX    TMP DP  RH WIND       PRES   REMARKS
LA GUARDIA NY  CLOUDY    66  59  78 E13       29.92R
RALEIGH NC     MOCLDY    80  71  74 S5        29.94S
ATLANTA GA     MOCLDY    75  71  87 S6        30.04R
NEW ORLEANS LA MOCLDY    79  74  84 SW3       30.03R
OKLAHOMA CITY  FAIR      83  67  58 S8        29.97R
ALBUQUERQUE NM MOCLDY    82  55  39 SE12      30.11R
SALT LAKE CITY MOCLDY    94  44  17 N9        29.89S HX  90
LOS ANGELES CA PTSUNNY   71  65  81 W9        29.87S
BOISE ID       FAIR      91  52  26 W9        29.82S
SEATTLE WA     FAIR      79  49  34 NW10      29.94S
$$

*** WEATHER ACROSS MANITOBA...SASKATCHEWAN AND ONTARIO ***
                ***ONTARIO***

CITY           SKY/WX    TMP DP  RH WIND       PRES   REMARKS
GERALDTON      PTCLDY    70  54  56 S6        30.02R
THUNDER BAY    PTCLDY    66  54  63 CALM      30.03S
SIOUX LOOKOUT  PTCLDY    70  57  64 S6        29.95F
TORONTO        CLOUDY    63  57  82 N16       29.97R
BIG TROUT LK   MOCLDY    72  61  68 S8        29.81S
PICKLE LAKE    MOCLDY    75  55  50 SW5       29.92F
DRYDEN         CLEAR     72  54  53 S10       29.95S
KENORA         MOCLDY    72  59  64 S8        29.90F
$$
                *** MANITOBA***

CITY           SKY/WX    TMP DP  RH WIND       PRES   REMARKS
BRANDON        MOCLDY    75  70  83 W7        29.72F
DAUPHIN        CLEAR     75  64  69 W9        29.70R
ISLAND LAKE    NOT AVBL
PILOT MOUND      N/A     72  64  78 S13G18      N/A
THE PAS        PTCLDY    72  54  53 W21G32    29.58R
THOMPSON       LGT RAIN  68  64  88 E10       29.58F
WINNIPEG       MOCLDY    73  64  73 S15G24    29.80R
LYNN LAKE      CLOUDY    64  61  88 E15       29.57F
CHURCHILL      MOCLDY    54  45  71 SE10      29.81F
GILLAM         LGT RAIN  64  63  94 E5        29.74F
$$
                ***SASKATCHEWAN***

CITY           SKY/WX    TMP DP  RH WIND       PRES   REMARKS
ESTEVAN        PTCLDY    73  54  49 NW12      29.80S
KINDERSLEY     MOCLDY    59  46  63 W17G39    29.84R
LLOYDMINSTER   LGT RAIN  55  55 100 NW22G35   29.70R
PRINCE ALBERT  CLOUDY    59  50  72 SW20G29   29.63F
REGINA         PTCLDY    72  41  33 W9        29.82S
YORKTON        CLEAR     70  52  52 W6        29.76S



USA.gov is the U.S. government's official web portal to all federal, state and local government web resources and services.